Lincolnton, NC

12:06 PM EST on November 23, 2017 (GMT -0500)
Lincolnton-Lincoln County Regional

Weather History for KIPJ - April, 2014

Change the Weather History Date:

Tuesday, April 22, 2014

  Actual Average (KCLT) Record (KCLT)
Temperature  
Mean Temperature 64 °F -  
Max Temperature 78 °F 73 °F 91 °F (1957)
Min Temperature 49 °F 50 °F 33 °F (1978)
Degree Days  
Heating Degree Days 2    
Growing Degree Days 14 (Base 50)    
Moisture  
Dew Point 50 °F    
Average Humidity 68    
Maximum Humidity 94    
Minimum Humidity 31    
Precipitation  
Precipitation 0.00 in - - ()
Sea Level Pressure  
Sea Level Pressure 29.81 in    
Wind  
Wind Speed 2 mph (West)    
Max Wind Speed 14 mph    
Max Gust Speed 22 mph    
Visibility 10 miles    
Events Rain    
Averages and records for this station are not official NWS values.
T = Trace of Precipitation, MM = Missing Value Source: NWS Daily Summary

Daily Weather History Graph

Daily Weather History Graph

Search for Another Location

Airport or City:

Trip Planner

Search our weather history database for the weather conditions in past years. The results will help you decide how hot, cold, wet, or windy it might be!

Date:

Astronomy

Apr. 22, 2014 Rise Set
Actual Time 6:43 AM EDT 8:03 PM EDT
Civil Twilight 6:16 AM EDT 8:30 PM EDT
Nautical Twilight 5:44 AM EDT 9:02 PM EDT
Astronomical Twilight 5:11 AM EDT 9:35 PM EDT
Moon 2:16 AM EDT (4/22) 1:17 PM EDT (4/22)
Length of Visible Light 14h 13m
Length of Day
13h 20m
Last Quarter, 46% of the Moon is Illuminated
Apr 22
Last Quarter
Apr 29
New
May 6
First Quarter
May 14
Full
May 21
Last Quarter

Hourly Weather History & Observations

Time (EDT) Temp. Dew Point Humidity Pressure Visibility Wind Dir Wind Speed Gust Speed Precip Events Conditions
12:15 AM 55.0 °F 48.9 °F 80% 29.93 in 10.0 mi Calm Calm - N/A   Scattered Clouds
12:35 AM 54.9 °F 48.9 °F 80% 29.93 in 10.0 mi Calm Calm - N/A   Clear
12:55 AM 55.8 °F 49.5 °F 79% 29.93 in 10.0 mi Calm Calm - N/A   Clear
1:15 AM 55.0 °F 48.4 °F 78% 29.92 in 10.0 mi Calm Calm - N/A   Clear
1:35 AM 55.6 °F 45.5 °F 69% 29.91 in 10.0 mi Calm Calm - N/A   Clear
1:55 AM 55.4 °F 45.7 °F 70% 29.90 in 10.0 mi Calm Calm - N/A   Clear
2:15 AM 54.1 °F 45.9 °F 74% 29.90 in 10.0 mi Calm Calm - N/A   Clear
2:35 AM 54.5 °F 44.8 °F 70% 29.89 in 10.0 mi West 4.6 mph - N/A   Clear
2:55 AM 52.3 °F 47.5 °F 84% 29.88 in 10.0 mi Calm Calm - N/A   Clear
3:15 AM 52.2 °F 45.7 °F 79% 29.88 in 10.0 mi Calm Calm - N/A   Clear
3:35 AM 51.3 °F 48.0 °F 89% 29.87 in 10.0 mi Calm Calm - N/A   Clear
3:55 AM 51.3 °F 47.5 °F 87% 29.87 in 10.0 mi Calm Calm - N/A   Clear
4:15 AM 50.9 °F 47.1 °F 87% 29.87 in 10.0 mi Calm Calm - N/A   Clear
4:35 AM 52.0 °F 46.6 °F 82% 29.86 in 10.0 mi WSW 4.6 mph - N/A   Clear
4:55 AM 55.4 °F 45.7 °F 70% 29.86 in 10.0 mi West 5.8 mph - N/A   Clear
5:15 AM 53.4 °F 45.5 °F 75% 29.85 in 10.0 mi West 4.6 mph - N/A   Clear
5:35 AM 53.4 °F 45.0 °F 73% 29.85 in 10.0 mi West 3.5 mph - N/A   Clear
5:55 AM 52.2 °F 45.0 °F 76% 29.85 in 10.0 mi Calm Calm - N/A   Clear
6:15 AM 50.9 °F 45.7 °F 82% 29.84 in 10.0 mi Calm Calm - N/A   Clear
6:35 AM 50.4 °F 45.1 °F 82% 29.84 in 10.0 mi Calm Calm - N/A   Clear
6:55 AM 49.3 °F 46.9 °F 92% 29.84 in 10.0 mi Calm Calm - N/A   Clear
7:15 AM 49.3 °F 46.8 °F 91% 29.85 in 10.0 mi Calm Calm - N/A   Clear
7:35 AM 50.0 °F 46.6 °F 88% 29.85 in 10.0 mi Calm Calm - N/A   Clear
7:55 AM 51.1 °F 48.0 °F 89% 29.85 in 10.0 mi Calm Calm - N/A   Clear
8:15 AM 54.1 °F 48.4 °F 81% 29.85 in 10.0 mi Calm Calm - N/A   Clear
8:35 AM 58.1 °F 47.8 °F 69% 29.85 in 10.0 mi Calm Calm - N/A   Clear
8:55 AM 60.4 °F 48.2 °F 64% 29.84 in 10.0 mi Calm Calm - N/A   Clear
9:15 AM 62.8 °F 48.7 °F 60% 29.84 in 10.0 mi Calm Calm - N/A   Clear
9:35 AM 65.5 °F 48.4 °F 54% 29.84 in 10.0 mi Calm Calm - N/A   Clear
9:55 AM 68.9 °F 47.8 °F 47% 29.83 in 10.0 mi Calm Calm - N/A   Clear
10:15 AM 70.9 °F 47.3 °F 43% 29.83 in 10.0 mi Calm Calm - N/A   Mostly Cloudy
10:35 AM 71.8 °F 47.1 °F 41% 29.83 in 10.0 mi Calm Calm - N/A   Scattered Clouds
10:55 AM 73.0 °F 46.9 °F 39% 29.82 in 10.0 mi WNW 3.5 mph - N/A   Clear
11:15 AM 74.1 °F 46.2 °F 37% 29.82 in 10.0 mi West 3.5 mph - N/A   Clear
11:35 AM 74.1 °F 46.0 °F 37% 29.82 in 10.0 mi WNW 3.5 mph - N/A   Clear
11:55 AM 75.0 °F 46.0 °F 36% 29.82 in 10.0 mi WNW 3.5 mph - N/A   Clear
12:15 PM 76.1 °F 46.6 °F 35% 29.81 in 10.0 mi NW 3.5 mph - N/A   Scattered Clouds
12:35 PM 77.7 °F 46.2 °F 33% 29.80 in 10.0 mi West 3.5 mph - N/A   Scattered Clouds
12:55 PM 78.6 °F 45.3 °F 31% 29.80 in 10.0 mi WSW 4.6 mph - N/A   Scattered Clouds
1:15 PM 78.1 °F 45.0 °F 31% 29.79 in 10.0 mi West 8.1 mph - N/A   Mostly Cloudy
1:35 PM 76.3 °F 46.8 °F 35% 29.78 in 10.0 mi West 6.9 mph - N/A   Mostly Cloudy
1:55 PM 75.4 °F 46.9 °F 36% 29.78 in 10.0 mi West 9.2 mph - N/A   Overcast
2:15 PM 74.8 °F 48.4 °F 39% 29.78 in 10.0 mi West 10.4 mph - N/A   Overcast
2:35 PM 75.2 °F 48.7 °F 39% 29.78 in 10.0 mi West 9.2 mph 16.1 mph N/A   Mostly Cloudy
2:55 PM 74.3 °F 49.5 °F 41% 29.78 in 10.0 mi WNW 11.5 mph 18.4 mph N/A Rain Light Rain
3:15 PM 70.3 °F 52.2 °F 52% 29.78 in 10.0 mi West 13.8 mph 21.9 mph N/A   Light Drizzle
3:35 PM 67.1 °F 55.2 °F 66% 29.78 in 10.0 mi West 10.4 mph 19.6 mph N/A Rain Light Rain
3:55 PM 65.5 °F 57.2 °F 75% 29.78 in 10.0 mi West 10.4 mph - N/A Rain Light Rain
4:15 PM 65.1 °F 58.1 °F 78% 29.78 in 10.0 mi West 12.7 mph - N/A Rain Rain
4:35 PM 66.7 °F 56.5 °F 70% 29.76 in 10.0 mi West 6.9 mph - N/A Rain Light Rain
4:55 PM 67.3 °F 56.3 °F 68% 29.76 in 10.0 mi West 6.9 mph - N/A   Clear
5:15 PM 67.5 °F 54.7 °F 64% 29.76 in 10.0 mi West 8.1 mph - N/A   Clear
5:35 PM 67.5 °F 53.8 °F 61% 29.75 in 10.0 mi WSW 8.1 mph - N/A   Clear
5:55 PM 67.5 °F 53.6 °F 61% 29.76 in 10.0 mi West 8.1 mph - N/A   Clear
6:15 PM 66.7 °F 55.0 °F 66% 29.75 in 10.0 mi West 6.9 mph - N/A   Clear
6:35 PM 66.9 °F 55.2 °F 66% 29.75 in 10.0 mi West 6.9 mph - N/A   Clear
6:55 PM 66.6 °F 55.0 °F 66% 29.74 in 10.0 mi West 5.8 mph - N/A   Clear
7:15 PM 66.6 °F 55.4 °F 67% 29.74 in 10.0 mi West 6.9 mph - N/A   Scattered Clouds
7:35 PM 66.6 °F 55.6 °F 68% 29.74 in 10.0 mi West 8.1 mph - N/A   Mostly Cloudy
7:55 PM 66.2 °F 55.6 °F 69% 29.74 in 10.0 mi West 5.8 mph - N/A   Mostly Cloudy
8:15 PM 65.1 °F 55.9 °F 72% 29.74 in 10.0 mi West 5.8 mph - N/A   Clear
8:35 PM 62.2 °F 55.8 °F 79% 29.74 in 10.0 mi West 4.6 mph - N/A   Clear
8:55 PM 63.0 °F 55.4 °F 76% 29.75 in 10.0 mi WSW 3.5 mph - N/A   Clear
9:15 PM 61.9 °F 55.6 °F 80% 29.76 in 10.0 mi WSW 3.5 mph - N/A   Clear
9:35 PM 59.9 °F 55.2 °F 84% 29.76 in 10.0 mi West 4.6 mph - N/A   Clear
9:55 PM 59.0 °F 55.4 °F 88% 29.77 in 10.0 mi West 3.5 mph - N/A   Clear
10:15 PM 59.7 °F 55.8 °F 87% 29.77 in 10.0 mi Calm Calm - N/A   Clear
10:35 PM 58.5 °F 55.6 °F 90% 29.78 in 10.0 mi Calm Calm - N/A   Clear
10:55 PM 56.5 °F 54.1 °F 92% 29.78 in 10.0 mi Calm Calm - N/A   Clear
11:15 PM 56.7 °F 54.1 °F 91% 29.78 in 10.0 mi Calm Calm - N/A   Clear
11:35 PM 58.3 °F 55.2 °F 90% 29.77 in 10.0 mi Calm Calm - N/A   Clear
11:55 PM 54.7 °F 53.1 °F 94% 29.77 in 10.0 mi Calm Calm - N/A   Clear